Location: Unspecified
(0.0000°N, 0.0000°E)
Time: 02:15:07
(UTC+00:00)

deb Explorer IX - Pass Details

Date: 16 December 2018
Orbit: 538 x 1115 km, 38.8° (Epoch: 17 January)

Event Time Altitude Azimuth Distance (km) Brightness Sun altitude
Rises 15:33:39 0° 259° (W) 3,396 ? 32.2°
Reaches altitude 10° 15:37:16 10° 279° (W) 2,326 ? 31.4°
Maximum altitude 15:40:35 16° 317° (NW) 1,808 ? 30.7°
Drops below altitude 10° 15:43:37 10° 356° (N) 2,092 ? 30.0°
Sets 15:46:38 0° 18° (NNE) 2,898 ? 29.4°
